GEFSSE_con_probscp_240.txt.gz
Probability
3 8 15 16 14 11 9 11 11 10 10 13 14 10 4 3 6 6 4 4 6 7 6 6 6 6 6 5 3 1 0 1 2 2 3 4 3 2 4 7 8 11 17
4 9 14 16 14 12 11 11 10 9 9 10 11 8 5 5 7 7 5 5 6 6 4 4 5 6 6 4 2 0 0 0 1 1 2 3 2 2 4 7 9 12 16
6 8 12 13 13 13 12 11 10 9 8 8 8 7 6 7 8 8 7 6 6 4 2 2 3 4 4 3 1 0 0 0 0 1 1 1 1 3 5 8 10 12 14
6 9 11 13 14 13 11 10 10 10 8 8 8 8 8 9 9 9 8 8 7 5 2 1 1 2 2 1 0 0 0 0 1 1 0 0 3 7 8 8 10 11 11
7 10 13 15 16 15 11 10 10 10 9 7 8 11 13 12 11 11 10 10 9 7 3 1 0 1 1 0 1 1 1 0 0 0 0 1 5 10 10 8 9 10 11
6 10 15 17 17 14 10 8 8 8 8 8 9 12 14 14 12 12 13 12 11 9 5 2 1 0 0 1 2 2 2 1 0 0 1 3 7 11 10 8 9 11 12
5 9 14 16 15 12 8 6 5 6 8 9 10 12 14 14 13 13 13 13 12 10 8 5 4 3 1 1 2 3 3 2 1 0 2 5 8 11 11 9 9 11 13
4 7 11 14 13 11 9 6 6 7 10 12 13 13 13 14 13 12 11 11 11 11 9 7 5 5 3 1 1 3 3 3 2 1 3 6 10 12 12 11 11 11 13
4 6 8 9 9 10 10 9 9 11 12 14 15 14 12 12 10 8 9 11 12 12 10 8 7 8 7 4 2 3 3 3 3 4 5 7 11 12 12 11 12 12 13
6 6 5 6 6 8 8 9 10 12 13 13 14 13 10 8 6 4 5 9 10 10 9 9 9 11 10 7 5 5 5 5 6 6 7 9 11 11 10 11 13 14 14
8 7 6 6 6 6 6 6 7 9 10 11 10 10 8 6 4 2 3 5 5 5 6 6 7 9 9 7 7 7 8 8 8 8 9 9 10 10 10 10 12 13 13
9 9 8 7 6 7 7 6 4 5 8 8 7 8 7 5 4 4 4 4 4 3 2 2 3 4 5 4 4 6 7 8 9 9 9 10 10 9 9 9 8 8 7
9 9 10 9 8 8 8 8 6 6 7 7 7 8 7 6 6 7 7 6 5 5 5 4 4 3 3 3 2 2 4 6 7 7 8 10 10 9 8 7 5 3 2
9 11 13 14 13 10 10 10 8 8 8 7 8 9 9 8 8 10 12 10 9 10 9 9 8 7 6 6 3 2 2 3 5 6 9 10 10 9 8 7 5 2 2
12 13 16 17 16 14 14 12 9 8 7 7 7 8 8 9 10 13 15 14 12 13 14 13 12 11 9 8 5 3 2 3 5 8 10 9 8 7 8 7 6 4 3
16 16 17 18 17 15 15 13 10 7 7 7 6 7 7 8 10 13 16 15 14 14 15 15 13 12 10 7 4 4 5 7 8 8 10 10 7 6 7 7 5 4 4
17 16 16 17 16 14 13 12 10 8 7 7 6 6 6 7 8 11 14 14 14 14 15 15 13 11 8 6 4 4 6 9 9 9 9 9 8 7 6 6 4 3 4
15 14 15 15 14 12 12 11 10 8 7 7 6 6 6 6 7 9 12 13 13 14 14 13 11 9 8 7 6 6 7 8 9 8 7 7 7 6 5 4 4 4 4
17 15 14 14 13 13 13 12 11 10 9 7 7 7 7 7 7 9 12 13 12 14 13 10 9 9 8 7 6 6 6 7 8 6 6 6 5 4 4 4 4 4 3
19 18 16 14 15 15 15 15 14 13 11 9 8 8 9 9 8 8 10 11 12 12 11 8 8 8 7 6 5 5 6 6 6 5 5 5 4 3 4 4 4 3 2
21 21 17 14 14 15 16 16 16 16 14 11 9 10 10 10 9 8 8 11 12 12 12 10 9 7 6 4 4 4 5 5 5 4 3 2 2 2 2 3 4 4 3
22 20 16 12 11 13 15 16 18 19 16 12 11 11 9 8 7 6 8 10 11 12 13 14 12 8 6 5 5 4 3 3 3 2 1 1 1 1 2 2 4 5 6
20 19 15 12 11 11 13 15 18 19 16 12 11 10 8 6 5 5 6 8 9 10 12 14 13 10 8 6 6 4 2 1 1 1 1 2 2 3 3 3 4 6 8
19 17 15 14 14 14 14 15 17 17 13 11 10 9 7 6 5 5 5 5 7 8 9 10 11 11 9 7 6 4 2 1 2 1 1 1 1 3 5 6 6 7 9
16 15 14 15 16 16 16 17 18 15 12 11 10 8 7 6 4 4 4 4 6 8 8 8 8 9 8 6 5 4 3 2 2 2 1 1 1 2 4 7 8 8 9
13 13 13 14 15 14 16 19 19 16 13 12 10 8 6 4 2 2 3 4 5 8 9 7 7 7 7 5 5 5 4 3 2 1 2 2 2 2 5 8 9 9 9

GEFSSE_con_probscp_246.txt.gz
Probability
16 17 20 18 12 9 8 7 8 10 10 9 8 9 10 10 10 12 13 13 11 8 6 4 2 1 0 0 0 0 0 0 1 2 3 5 5 5 5 7 8 10 11
18 20 22 18 12 9 9 8 8 9 9 8 8 9 10 10 10 12 13 13 10 8 7 5 3 2 1 0 0 0 0 0 1 2 3 3 4 4 6 9 11 11 11
19 19 20 19 15 12 11 10 9 8 7 7 7 8 9 9 10 11 12 11 9 8 8 7 4 2 1 0 0 0 0 1 2 2 2 2 2 5 9 12 13 12 13
17 18 20 20 18 14 11 10 9 7 5 4 5 5 6 8 9 10 11 10 9 7 7 7 5 2 1 1 1 0 1 1 2 1 1 0 2 7 12 13 13 13 13
18 21 23 22 19 14 10 8 7 6 4 3 3 4 4 6 8 10 10 9 8 6 6 5 4 3 3 3 2 1 1 1 1 0 0 0 3 9 13 12 11 12 12
21 24 24 23 20 15 11 8 7 5 3 1 2 3 5 6 8 10 10 10 8 6 5 4 4 4 4 4 3 2 1 0 0 0 0 1 4 10 14 12 11 10 10
22 22 23 23 20 16 13 10 8 5 2 1 2 4 6 8 9 11 11 11 10 7 5 5 5 5 4 4 3 1 0 0 0 0 0 2 7 12 15 14 13 11 9
17 18 20 21 19 16 15 13 9 7 5 3 3 5 7 9 10 11 11 11 10 8 6 6 7 6 5 4 4 2 1 0 0 0 0 3 9 15 16 16 15 12 10
12 13 16 17 16 16 15 13 11 9 7 5 6 6 7 9 10 10 10 9 8 8 7 7 9 9 8 6 5 4 3 1 1 1 1 5 12 17 18 16 14 11 9
10 12 14 15 14 13 13 13 14 12 9 7 7 6 7 7 7 7 7 6 7 7 7 7 9 11 10 8 5 4 4 3 3 3 3 8 16 20 18 14 12 10 9
9 11 13 13 12 10 11 13 14 13 10 8 7 7 6 5 5 4 4 6 6 5 5 6 7 8 9 7 4 3 3 4 5 5 6 12 19 20 17 13 11 11 10
10 10 10 10 9 8 10 12 12 11 10 8 8 8 8 8 6 4 6 6 5 4 4 5 5 6 6 5 3 3 2 3 5 5 8 15 18 17 15 13 12 10 9
12 10 8 7 8 9 10 10 9 9 9 8 8 10 12 12 11 9 9 9 7 6 6 6 5 6 6 4 3 3 3 3 4 6 11 16 17 15 14 14 12 10 8
14 12 10 11 14 15 14 12 9 8 9 9 10 11 12 13 13 12 13 13 11 10 10 9 8 7 6 3 1 2 3 3 4 7 13 18 18 15 14 11 11 10 9
18 17 16 18 22 24 22 18 12 10 9 10 11 11 10 11 12 13 14 14 12 12 13 13 10 9 7 4 2 2 3 3 4 9 15 20 19 17 13 10 8 8 7
28 26 25 25 28 30 29 24 16 11 10 11 13 12 11 10 11 13 13 13 13 14 16 15 13 11 9 7 5 3 3 4 5 8 13 17 18 16 14 12 10 8 6
39 36 31 29 30 31 30 26 18 13 12 14 15 15 12 12 13 14 12 12 14 16 17 17 15 13 11 9 7 5 6 7 6 6 9 12 13 12 14 15 14 12 10
43 41 35 31 30 30 29 26 21 17 18 19 20 19 16 14 15 14 13 13 15 16 16 16 15 13 11 9 6 5 7 10 9 6 7 8 8 8 10 12 15 15 14
41 40 36 33 31 30 30 29 26 24 24 24 24 23 19 17 16 15 14 15 16 16 15 14 12 10 8 7 5 4 7 10 9 7 6 7 7 7 6 8 12 14 13
39 39 38 36 34 34 34 32 30 28 27 25 25 25 22 19 17 15 14 16 17 15 13 12 10 7 6 5 3 3 4 6 6 6 6 6 7 8 6 5 8 9 9
39 38 38 38 38 38 37 34 31 29 26 24 25 27 25 21 17 15 15 17 18 16 13 10 8 6 4 3 2 1 2 3 4 5 6 6 7 8 7 5 4 4 4
39 38 38 38 40 39 37 35 33 31 28 27 28 28 25 21 17 13 14 15 17 16 13 10 8 7 5 3 2 1 1 2 2 4 5 6 6 7 6 4 2 2 2
38 37 36 37 38 36 33 31 32 32 31 30 29 27 24 21 16 12 10 10 11 12 12 11 10 10 9 6 4 2 1 1 1 1 3 4 5 6 6 4 2 3 3
34 34 34 34 35 32 28 27 29 32 31 30 28 25 22 18 14 9 6 6 7 8 9 9 9 10 10 8 6 4 2 2 1 0 1 2 4 6 7 6 5 5 6
30 31 31 33 34 32 27 25 28 30 30 28 25 21 19 17 12 7 4 5 6 6 7 8 7 7 8 8 6 4 3 3 2 1 0 1 1 3 6 7 7 8 9
28 29 30 34 35 32 27 26 27 28 28 26 22 19 18 16 11 6 4 4 5 5 5 6 6 5 6 6 6 5 3 3 2 1 0 0 0 2 5 7 8 9 10

GEFSSE_con_probscp_252.txt.gz
Probability
3 7 11 12 12 13 14 16 19 20 19 17 15 14 14 14 14 13 11 12 11 8 5 3 2 1 1 3 4 4 3 3 3 2 1 0 0 0 0 0 1 5 7
5 7 10 12 13 14 14 15 18 19 19 17 15 14 13 13 13 13 12 12 11 9 6 4 2 1 1 2 4 4 3 2 1 1 1 0 0 0 1 1 1 4 6
10 8 9 12 15 15 13 12 14 16 17 16 15 13 12 11 12 12 13 13 12 10 7 5 3 2 2 1 2 3 2 2 1 1 1 1 0 1 3 4 2 3 4
12 9 9 14 17 15 11 9 10 13 13 13 13 12 11 10 11 12 12 13 12 11 8 6 4 3 2 1 1 1 1 1 2 2 2 1 1 3 6 6 4 4 5
12 10 11 16 17 14 9 7 8 9 10 11 11 10 10 10 10 11 11 11 12 11 8 6 5 4 3 1 0 0 0 0 2 2 2 1 2 4 7 8 8 8 8
12 12 15 18 17 12 9 8 9 9 10 10 9 9 9 10 10 10 10 10 10 10 8 7 6 5 3 1 0 0 0 1 2 3 2 2 2 4 7 10 13 13 13
12 12 16 20 17 13 12 11 11 11 12 11 9 7 8 9 9 10 10 10 10 9 8 7 6 5 3 1 1 1 1 1 2 3 2 1 2 4 8 12 16 17 16
13 14 16 17 16 14 13 13 13 12 12 10 9 8 8 9 10 11 12 12 11 10 9 7 6 5 3 2 1 2 2 1 2 2 1 0 1 4 9 13 16 16 16
15 15 15 13 12 13 14 14 11 10 9 9 9 10 10 10 10 11 13 14 13 12 10 7 5 4 3 2 2 3 3 3 3 3 2 1 1 3 7 11 14 15 13
16 15 14 13 12 12 13 12 9 7 7 8 10 11 11 10 9 9 12 14 14 12 10 7 4 2 1 1 2 2 2 3 3 3 3 3 3 4 6 8 11 11 10
16 15 14 14 14 13 12 10 8 6 6 7 9 10 10 9 7 6 8 11 11 10 8 6 3 1 0 1 1 1 1 1 2 3 3 4 6 6 6 7 8 8 8
18 16 15 15 15 14 11 9 8 6 6 6 6 7 8 8 6 5 6 8 8 7 5 4 2 1 1 1 0 0 0 1 2 2 2 5 8 9 7 7 8 7 7
17 16 15 15 14 12 11 9 8 6 5 4 3 3 5 6 6 5 5 5 5 3 2 2 2 1 2 1 1 0 0 0 1 2 3 6 10 11 9 7 7 6 6
17 15 14 12 10 10 10 9 7 6 4 3 1 1 2 4 4 4 3 3 3 3 3 2 2 2 3 2 1 0 0 0 0 1 3 7 10 10 9 6 4 4 5
17 15 11 9 8 8 8 8 6 5 4 3 1 0 1 2 2 1 1 2 3 4 3 3 3 3 3 2 1 0 0 0 0 1 3 7 8 8 8 6 4 4 4
17 14 10 8 7 7 6 5 4 4 3 3 2 1 1 2 2 1 1 3 4 3 2 2 2 3 3 2 1 0 0 0 0 1 2 5 7 8 7 6 6 5 4
16 14 11 8 7 5 4 3 3 3 3 3 3 3 3 3 4 3 3 4 3 1 1 1 1 3 3 2 1 0 0 0 0 0 1 3 6 8 7 7 7 6 4
16 15 13 10 7 5 4 3 2 3 3 3 3 3 3 3 4 3 3 3 1 1 1 1 1 2 3 2 1 0 0 0 0 0 0 1 3 5 6 6 7 6 5
19 18 16 12 8 6 6 4 3 3 3 3 3 4 3 3 3 3 2 1 0 0 1 1 0 1 2 2 1 0 0 1 0 0 0 0 1 3 3 4 5 5 4
23 22 19 15 10 8 8 6 4 3 2 3 3 4 4 3 3 2 1 0 0 0 0 0 0 0 1 1 0 0 0 0 0 0 0 0 0 1 1 2 3 4 4
23 23 23 19 14 11 9 7 4 1 1 1 3 4 4 4 2 1 0 0 0 0 0 0 0 0 0 0 0 0 0 0 0 0 0 0 0 0 0 1 3 3 3
21 22 23 21 17 14 12 8 4 1 0 1 3 5 5 4 2 0 0 0 0 0 0 0 0 0 0 0 0 0 0 0 0 0 0 0 0 0 0 1 2 3 3
20 20 20 18 17 16 15 11 6 2 0 1 3 6 6 4 1 0 0 0 0 0 0 0 0 0 0 0 0 0 0 0 0 0 0 0 0 0 0 0 1 2 2
19 18 16 15 14 16 16 13 9 4 0 1 4 7 6 3 1 0 0 0 0 0 0 0 0 1 1 0 0 0 0 0 0 0 0 0 0 1 0 0 0 1 1
19 17 15 13 13 14 15 14 10 6 2 2 4 6 5 3 2 2 1 1 1 1 0 0 0 1 2 1 0 0 0 0 0 0 0 0 0 0 0 1 1 0 0
19 17 14 12 13 14 13 13 10 6 3 3 5 6 5 3 4 4 3 2 2 2 1 0 1 2 2 1 0 0 0 0 0 0 0 0 0 0 1 2 2 1 0

GEFSSE_con_probscp_258.txt.gz
Probability
9 11 16 19 19 18 17 15 12 9 7 7 7 7 8 8 8 8 6 4 3 2 2 3 4 4 3 2 1 1 0 0 0 1 2 3 4 5 6 8 10 10 11
13 15 18 20 20 20 18 15 12 9 7 7 7 7 7 8 9 10 8 6 5 4 3 3 3 2 1 1 2 2 1 1 0 0 1 2 3 4 5 6 7 10 12
20 20 21 23 23 21 19 17 13 9 7 7 7 8 8 8 10 11 10 8 8 7 5 3 2 1 0 1 2 3 2 2 1 0 0 1 1 3 4 5 6 10 14
23 22 22 24 24 21 19 17 13 8 6 7 9 10 10 10 11 11 10 9 8 7 6 5 3 2 1 0 1 1 2 2 1 0 0 0 0 1 2 3 5 10 13
23 22 23 24 23 18 16 15 11 8 7 8 10 11 11 12 12 11 10 8 7 6 6 6 4 3 2 1 0 0 1 2 1 0 0 0 0 0 0 1 3 8 11
22 20 21 23 20 14 13 12 10 9 9 10 11 12 12 12 12 11 10 9 8 7 6 6 5 4 3 2 1 2 2 2 1 1 1 0 0 1 1 1 3 7 10
20 18 18 18 16 12 11 12 11 10 11 12 12 12 12 11 12 12 12 12 10 8 7 7 7 6 6 6 5 4 4 3 3 2 2 1 2 2 3 3 4 6 8
18 16 15 14 14 12 12 11 12 12 13 14 13 12 11 10 10 10 12 13 12 9 8 8 9 9 8 8 7 6 5 5 4 4 3 3 4 4 3 3 4 6 7
15 14 13 13 13 12 11 11 12 13 13 13 13 12 11 10 9 9 10 12 12 10 9 9 10 10 8 7 6 4 4 5 6 5 4 4 4 4 3 3 4 7 9
13 12 12 12 13 12 12 12 13 13 13 11 11 12 10 9 8 8 8 10 10 10 9 8 8 7 6 4 2 1 2 3 5 5 4 3 3 3 4 3 4 7 8
10 10 10 10 11 12 13 12 12 12 11 10 10 10 10 9 8 8 7 7 7 7 7 6 4 4 3 2 0 0 0 1 3 4 3 2 2 3 4 4 5 6 6
9 8 7 7 8 11 12 12 11 10 9 9 9 10 10 9 8 8 7 6 4 4 4 3 2 2 2 2 1 0 0 0 1 3 3 3 3 4 5 5 6 6 6
9 8 6 5 7 9 11 12 13 12 11 9 8 9 11 10 9 7 6 5 3 3 3 2 2 3 3 2 1 0 0 0 1 2 3 4 6 6 5 6 7 7 7
11 9 7 6 7 9 12 14 16 16 14 9 6 7 9 9 8 7 6 5 4 4 4 5 5 5 4 3 1 0 0 0 0 1 3 5 7 7 7 6 6 6 6
13 12 10 8 9 11 14 16 18 17 14 9 6 5 5 6 7 7 6 6 6 6 6 7 8 6 5 4 2 1 1 0 0 1 2 5 6 8 8 7 7 6 6
14 14 13 12 13 14 15 16 16 14 12 8 5 3 3 3 4 5 6 6 6 6 6 7 7 6 6 5 3 2 2 1 1 0 1 3 5 7 7 7 8 7 6
14 15 15 15 14 14 12 12 12 11 9 6 4 3 3 3 3 4 4 4 5 6 6 6 6 5 5 4 3 2 3 3 2 1 0 1 3 5 6 7 7 6 5
13 14 14 14 13 11 9 8 8 8 6 4 3 3 3 3 3 3 3 3 4 4 4 3 3 2 2 1 1 2 2 3 2 1 0 1 3 4 5 5 6 5 5
12 13 14 13 11 8 7 6 5 4 3 3 3 3 3 3 3 3 3 3 3 2 1 1 1 1 0 0 0 1 1 1 2 2 1 2 3 3 4 4 4 4 4
11 13 14 14 10 7 5 4 3 1 1 2 2 3 3 3 3 3 3 3 2 1 0 0 0 0 0 0 0 0 0 0 1 2 2 3 3 3 2 2 2 2 2
9 11 14 13 10 8 7 7 4 2 1 1 1 1 2 3 3 3 3 3 2 1 0 0 0 0 0 0 0 0 0 0 1 2 3 3 3 3 1 0 1 2 2
7 9 12 12 11 10 10 9 7 4 2 2 2 1 1 2 3 3 3 3 1 0 0 0 0 0 0 0 0 0 0 0 0 1 2 3 3 2 1 0 1 2 3
6 8 10 10 10 11 11 9 7 5 4 4 3 2 1 2 3 4 3 2 1 0 0 0 0 0 0 0 0 0 0 0 0 0 1 1 2 1 0 0 0 2 3
6 8 10 10 8 8 9 8 7 6 5 5 5 3 3 3 4 4 4 2 1 0 1 1 0 0 0 0 0 0 0 0 0 0 0 0 0 0 0 0 1 2 3
6 8 10 9 6 5 7 8 8 8 8 7 5 4 4 4 4 4 3 3 1 1 2 2 1 1 1 1 0 0 0 0 0 0 0 0 0 0 0 0 1 2 3
6 8 10 8 5 4 6 7 8 9 9 7 5 4 4 5 4 3 3 3 2 2 3 3 2 2 2 2 1 0 0 0 0 0 0 0 0 0 0 0 0 1 3